Time,TemperatureF,DewpointF,PressureIn,WindDirection,WindDirectionDegrees,WindSpeedMPH,WindSpeedGustMPH,Humidity,HourlyPrecipIn,Conditions,Clouds,dailyrainin,SolarRadiationWatts/m^2,SoftwareType,DateUTC
2013-03-30 00:11:00,33.0,33.0,-100.00,SE,131,1.0,5.0,100,0.00,,,0.00,0.000000,,2013-03-30 06:11:00,
2013-03-30 00:22:00,33.0,33.0,-100.00,SE,131,1.0,5.0,100,0.00,,,0.00,0.000000,,2013-03-30 06:22:00,
2013-03-30 00:32:00,33.0,33.0,-100.00,SE,131,1.0,5.0,100,0.00,,,0.00,0.000000,,2013-03-30 06:32:00,
2013-03-30 00:42:00,33.0,33.0,-100.00,SE,131,1.0,5.0,100,0.00,,,0.00,0.000000,,2013-03-30 06:42:00,
2013-03-30 00:52:00,33.0,33.0,-100.00,East,79,0.0,5.0,100,0.00,,,0.00,0.000000,,2013-03-30 06:52:00,
2013-03-30 01:12:00,33.0,33.0,-100.00,East,79,0.0,5.0,100,0.00,,,0.00,0.000000,,2013-03-30 07:12:00,
2013-03-30 01:22:00,33.0,33.0,-100.00,East,79,0.0,5.0,100,0.00,,,0.00,0.000000,,2013-03-30 07:22:00,
2013-03-30 01:32:00,33.0,33.0,-100.00,East,79,0.0,5.0,100,0.00,,,0.00,0.000000,,2013-03-30 07:32:00,
2013-03-30 01:42:00,33.0,33.0,-100.00,East,79,0.0,5.0,100,0.00,,,0.00,0.000000,,2013-03-30 07:42:00,
2013-03-30 01:52:00,33.0,33.0,-100.00,South,173,0.0,2.0,100,0.00,,,0.00,0.000000,,2013-03-30 07:52:00,
2013-03-30 02:12:00,33.0,33.0,-100.00,South,173,0.0,2.0,100,0.00,,,0.00,0.000000,,2013-03-30 08:12:00,
2013-03-30 02:21:00,33.0,33.0,-100.00,South,173,0.0,2.0,100,0.00,,,0.00,0.000000,,2013-03-30 08:21:00,
2013-03-30 02:32:00,33.0,33.0,-100.00,South,173,0.0,2.0,100,0.00,,,0.00,0.000000,,2013-03-30 08:32:00,
2013-03-30 02:42:00,33.0,33.0,-100.00,South,173,0.0,2.0,100,0.00,,,0.00,0.000000,,2013-03-30 08:42:00,
2013-03-30 02:52:00,33.0,33.0,-100.00,ENE,72,0.0,3.0,100,0.00,,,0.00,0.000000,,2013-03-30 08:52:00,
2013-03-30 03:22:00,33.0,33.0,-100.00,ENE,72,0.0,3.0,100,0.00,,,0.00,0.000000,,2013-03-30 09:22:00,
2013-03-30 03:33:00,33.0,33.0,-100.00,ENE,72,0.0,3.0,100,0.00,,,0.00,0.000000,,2013-03-30 09:33:00,
2013-03-30 03:42:00,33.0,33.0,-100.00,ENE,72,0.0,3.0,100,0.00,,,0.00,0.000000,,2013-03-30 09:42:00,
2013-03-30 03:52:00,33.0,33.0,-100.00,NW,313,0.0,0.0,100,0.00,,,0.00,0.000000,,2013-03-30 09:52:00,
2013-03-30 04:12:00,33.0,33.0,-100.00,NW,313,0.0,0.0,100,0.00,,,0.00,0.000000,,2013-03-30 10:12:00,
2013-03-30 04:23:00,33.0,33.0,-100.00,NW,313,0.0,0.0,100,0.00,,,0.00,0.000000,,2013-03-30 10:23:00,
2013-03-30 04:32:00,33.0,33.0,-100.00,NW,313,0.0,0.0,100,0.00,,,0.00,0.000000,,2013-03-30 10:32:00,
2013-03-30 04:42:00,33.0,33.0,-100.00,NW,313,0.0,0.0,100,0.00,,,0.00,0.000000,,2013-03-30 10:42:00,
2013-03-30 04:52:00,32.0,32.0,-100.00,WSW,242,2.0,7.0,100,0.00,,,0.00,0.000000,,2013-03-30 10:52:00,
2013-03-30 05:12:00,32.0,32.0,-100.00,WSW,242,2.0,7.0,100,0.00,,,0.00,0.000000,,2013-03-30 11:12:00,
2013-03-30 05:22:00,32.0,32.0,-100.00,WSW,242,2.0,7.0,100,0.00,,,0.00,0.000000,,2013-03-30 11:22:00,
2013-03-30 05:32:00,32.0,32.0,-100.00,WSW,242,2.0,7.0,100,0.00,,,0.00,0.000000,,2013-03-30 11:32:00,
2013-03-30 05:42:00,32.0,32.0,-100.00,WSW,242,2.0,7.0,100,0.00,,,0.00,0.000000,,2013-03-30 11:42:00,
2013-03-30 05:52:00,33.0,33.0,-100.00,West,273,0.0,6.0,100,0.00,,,0.00,0.000000,,2013-03-30 11:52:00,
2013-03-30 06:22:00,33.0,33.0,-100.00,West,273,0.0,6.0,100,0.00,,,0.00,0.000000,,2013-03-30 12:22:00,
2013-03-30 06:32:00,33.0,33.0,-100.00,West,273,0.0,6.0,100,0.00,,,0.00,0.000000,,2013-03-30 12:32:00,
2013-03-30 06:42:00,33.0,33.0,-100.00,West,273,0.0,6.0,100,0.00,,,0.00,0.000000,,2013-03-30 12:42:00,
2013-03-30 06:52:00,32.0,32.0,-100.00,WNW,286,0.0,0.0,100,0.00,,,0.00,0.000000,,2013-03-30 12:52:00,
2013-03-30 07:12:00,32.0,32.0,-100.00,WNW,286,0.0,0.0,100,0.00,,,0.00,0.000000,,2013-03-30 13:12:00,
2013-03-30 07:22:00,32.0,32.0,-100.00,WNW,286,0.0,0.0,100,0.00,,,0.00,0.000000,,2013-03-30 13:22:00,
2013-03-30 07:32:00,32.0,32.0,-100.00,WNW,286,0.0,0.0,100,0.00,,,0.00,0.000000,,2013-03-30 13:32:00,
2013-03-30 07:42:00,32.0,32.0,-100.00,WNW,286,0.0,0.0,100,0.00,,,0.00,0.000000,,2013-03-30 13:42:00,
2013-03-30 07:52:00,33.0,33.0,-100.00,WNW,291,0.0,0.0,100,0.00,,,0.00,1.000000,,2013-03-30 13:52:00,
2013-03-30 08:22:00,33.0,33.0,-100.00,WNW,291,0.0,0.0,100,0.00,,,0.00,1.000000,,2013-03-30 14:22:00,
2013-03-30 08:32:00,33.0,33.0,-100.00,WNW,291,0.0,0.0,100,0.00,,,0.00,1.000000,,2013-03-30 14:32:00,
2013-03-30 08:42:00,33.0,33.0,-100.00,WNW,291,0.0,0.0,100,0.00,,,0.00,1.000000,,2013-03-30 14:42:00,
2013-03-30 08:52:00,34.0,34.0,-100.00,SSW,200,0.0,0.0,100,0.00,,,0.00,18.000000,,2013-03-30 14:52:00,
2013-03-30 09:12:00,34.0,34.0,-100.00,SSW,200,0.0,0.0,100,0.00,,,0.00,18.000000,,2013-03-30 15:12:00,
2013-03-30 09:22:00,34.0,34.0,-100.00,SSW,200,0.0,0.0,100,0.00,,,0.00,18.000000,,2013-03-30 15:22:00,
2013-03-30 09:33:00,34.0,34.0,-100.00,SSW,200,0.0,0.0,100,0.00,,,0.00,18.000000,,2013-03-30 15:33:00,
2013-03-30 09:42:00,34.0,34.0,-100.00,SSW,200,0.0,0.0,100,0.00,,,0.00,18.000000,,2013-03-30 15:42:00,
2013-03-30 09:52:00,36.0,34.0,-100.00,SSW,195,2.0,4.0,91,0.00,,,0.00,53.000000,,2013-03-30 15:52:00,
2013-03-30 10:13:00,36.0,34.0,-100.00,SSW,195,2.0,4.0,91,0.00,,,0.00,53.000000,,2013-03-30 16:13:00,
2013-03-30 10:23:00,36.0,34.0,-100.00,SSW,195,2.0,4.0,91,0.00,,,0.00,53.000000,,2013-03-30 16:23:00,
2013-03-30 10:32:00,36.0,34.0,-100.00,SSW,195,2.0,4.0,91,0.00,,,0.00,53.000000,,2013-03-30 16:32:00,
2013-03-30 10:42:00,36.0,34.0,-100.00,SSW,195,2.0,4.0,91,0.00,,,0.00,53.000000,,2013-03-30 16:42:00,
2013-03-30 10:52:00,45.0,33.0,-100.00,WSW,255,2.0,6.0,62,0.00,,,0.00,304.000000,,2013-03-30 16:52:00,
2013-03-30 11:22:00,45.0,33.0,-100.00,WSW,255,2.0,6.0,62,0.00,,,0.00,304.000000,,2013-03-30 17:22:00,
2013-03-30 11:32:00,45.0,33.0,-100.00,WSW,255,2.0,6.0,62,0.00,,,0.00,304.000000,,2013-03-30 17:32:00,
2013-03-30 11:42:00,45.0,33.0,-100.00,WSW,255,2.0,6.0,62,0.00,,,0.00,304.000000,,2013-03-30 17:42:00,
2013-03-30 11:52:00,44.0,28.0,-100.00,NW,316,2.0,12.0,54,0.04,,,0.04,479.000000,,2013-03-30 17:52:00,
2013-03-30 12:22:00,44.0,28.0,-100.00,NW,316,2.0,12.0,54,0.04,,,0.04,479.000000,,2013-03-30 18:22:00,
2013-03-30 12:32:00,44.0,28.0,-100.00,NW,316,2.0,12.0,54,0.04,,,0.04,479.000000,,2013-03-30 18:32:00,
2013-03-30 12:42:00,44.0,28.0,-100.00,NW,316,2.0,12.0,54,0.04,,,0.04,479.000000,,2013-03-30 18:42:00,
2013-03-30 12:52:00,45.0,24.0,-100.00,WNW,297,6.0,12.0,43,0.02,,,0.06,616.000000,,2013-03-30 18:52:00,
2013-03-30 13:13:00,45.0,24.0,-100.00,WNW,297,6.0,12.0,43,0.02,,,0.06,616.000000,,2013-03-30 19:13:00,
2013-03-30 13:22:00,45.0,24.0,-100.00,WNW,297,6.0,12.0,43,0.02,,,0.06,616.000000,,2013-03-30 19:22:00,
2013-03-30 13:32:00,45.0,24.0,-100.00,WNW,297,6.0,12.0,43,0.02,,,0.06,616.000000,,2013-03-30 19:32:00,
2013-03-30 13:42:00,45.0,24.0,-100.00,WNW,297,6.0,12.0,43,0.02,,,0.06,616.000000,,2013-03-30 19:42:00,
2013-03-30 13:52:00,44.0,22.0,-100.00,NW,326,5.0,12.0,41,0.00,,,0.06,467.000000,,2013-03-30 19:52:00,
2013-03-30 14:22:00,44.0,22.0,-100.00,NW,326,5.0,12.0,41,0.00,,,0.06,467.000000,,2013-03-30 20:22:00,
2013-03-30 14:32:00,44.0,22.0,-100.00,NW,326,5.0,12.0,41,0.00,,,0.06,467.000000,,2013-03-30 20:32:00,
2013-03-30 14:42:00,44.0,22.0,-100.00,NW,326,5.0,12.0,41,0.00,,,0.06,467.000000,,2013-03-30 20:42:00,
2013-03-30 14:52:00,48.0,18.0,-100.00,West,279,4.0,11.0,30,0.00,,,0.06,622.000000,,2013-03-30 20:52:00,
2013-03-30 15:12:00,48.0,18.0,-100.00,West,279,4.0,11.0,30,0.00,,,0.06,622.000000,,2013-03-30 21:12:00,
2013-03-30 15:22:00,48.0,18.0,-100.00,West,279,4.0,11.0,30,0.00,,,0.06,622.000000,,2013-03-30 21:22:00,
2013-03-30 15:33:00,48.0,18.0,-100.00,West,279,4.0,11.0,30,0.00,,,0.06,622.000000,,2013-03-30 21:33:00,
2013-03-30 15:43:00,48.0,18.0,-100.00,West,279,4.0,11.0,30,0.00,,,0.06,622.000000,,2013-03-30 21:43:00,
2013-03-30 15:52:00,47.0,19.0,-100.00,WSW,238,6.0,14.0,32,0.00,,,0.06,514.000000,,2013-03-30 21:52:00,
2013-03-30 16:12:00,47.0,19.0,-100.00,WSW,238,6.0,14.0,32,0.00,,,0.06,514.000000,,2013-03-30 22:12:00,
2013-03-30 16:23:00,47.0,19.0,-100.00,WSW,238,6.0,14.0,32,0.00,,,0.06,514.000000,,2013-03-30 22:23:00,
2013-03-30 16:32:00,47.0,19.0,-100.00,WSW,238,6.0,14.0,32,0.00,,,0.06,514.000000,,2013-03-30 22:32:00,
2013-03-30 16:43:00,47.0,19.0,-100.00,WSW,238,6.0,14.0,32,0.00,,,0.06,514.000000,,2013-03-30 22:43:00,
2013-03-30 16:52:00,46.0,18.0,-100.00,WSW,237,7.0,13.0,32,0.00,,,0.06,583.000000,,2013-03-30 22:52:00,
2013-03-30 17:12:00,46.0,18.0,-100.00,WSW,237,7.0,13.0,32,0.00,,,0.06,583.000000,,2013-03-30 23:12:00,
2013-03-30 17:22:00,46.0,18.0,-100.00,WSW,237,7.0,13.0,32,0.00,,,0.06,583.000000,,2013-03-30 23:22:00,
2013-03-30 17:32:00,46.0,18.0,-100.00,WSW,237,7.0,13.0,32,0.00,,,0.06,583.000000,,2013-03-30 23:32:00,
2013-03-30 17:42:00,46.0,18.0,-100.00,WSW,237,7.0,13.0,32,0.00,,,0.06,583.000000,,2013-03-30 23:42:00,
2013-03-30 17:52:00,46.0,17.0,-100.00,SW,236,7.0,14.0,31,0.00,,,0.06,445.000000,,2013-03-30 23:52:00,
2013-03-30 18:12:00,46.0,17.0,-100.00,SW,236,7.0,14.0,31,0.00,,,0.06,445.000000,,2013-03-31 00:12:00,
2013-03-30 18:22:00,46.0,17.0,-100.00,SW,236,7.0,14.0,31,0.00,,,0.06,445.000000,,2013-03-31 00:22:00,
2013-03-30 18:32:00,46.0,17.0,-100.00,SW,236,7.0,14.0,31,0.00,,,0.06,445.000000,,2013-03-31 00:32:00,
2013-03-30 18:42:00,46.0,17.0,-100.00,SW,236,7.0,14.0,31,0.00,,,0.06,445.000000,,2013-03-31 00:42:00,
2013-03-30 18:52:00,44.0,15.0,-100.00,WSW,240,4.0,12.0,31,0.00,,,0.06,239.000000,,2013-03-31 00:52:00,
2013-03-30 19:22:00,44.0,15.0,-100.00,WSW,240,4.0,12.0,31,0.00,,,0.06,239.000000,,2013-03-31 01:22:00,
2013-03-30 19:32:00,44.0,15.0,-100.00,WSW,240,4.0,12.0,31,0.00,,,0.06,239.000000,,2013-03-31 01:32:00,
2013-03-30 19:42:00,44.0,15.0,-100.00,WSW,240,4.0,12.0,31,0.00,,,0.06,239.000000,,2013-03-31 01:42:00,
2013-03-30 20:12:00,40.0,15.0,-100.00,NW,314,0.0,7.0,35,0.00,,,0.06,44.000000,,2013-03-31 02:12:00,
2013-03-30 20:22:00,40.0,15.0,-100.00,NW,314,0.0,7.0,35,0.00,,,0.06,44.000000,,2013-03-31 02:22:00,
2013-03-30 20:32:00,40.0,15.0,-100.00,NW,314,0.0,7.0,35,0.00,,,0.06,44.000000,,2013-03-31 02:32:00,
2013-03-30 20:42:00,40.0,15.0,-100.00,NW,314,0.0,7.0,35,0.00,,,0.06,44.000000,,2013-03-31 02:42:00,
2013-03-30 20:51:00,40.0,15.0,-100.00,NW,314,0.0,7.0,35,0.00,,,0.06,44.000000,,2013-03-31 02:51:00,
2013-03-30 20:52:00,34.0,13.0,-100.00,NW,311,0.0,3.0,41,0.00,,,0.06,0.000000,,2013-03-31 02:52:00,
2013-03-30 21:12:00,34.0,13.0,-100.00,NW,311,0.0,3.0,41,0.00,,,0.06,0.000000,,2013-03-31 03:12:00,
2013-03-30 21:22:00,34.0,13.0,-100.00,NW,311,0.0,3.0,41,0.00,,,0.06,0.000000,,2013-03-31 03:22:00,
2013-03-30 21:32:00,34.0,13.0,-100.00,NW,311,0.0,3.0,41,0.00,,,0.06,0.000000,,2013-03-31 03:32:00,
2013-03-30 21:43:00,34.0,13.0,-100.00,NW,311,0.0,3.0,41,0.00,,,0.06,0.000000,,2013-03-31 03:43:00,
2013-03-30 21:52:00,31.0,18.0,-100.00,East,90,1.0,4.0,57,0.00,,,0.06,0.000000,,2013-03-31 03:52:00,
2013-03-30 22:22:00,31.0,18.0,-100.00,East,90,1.0,4.0,57,0.00,,,0.06,0.000000,,2013-03-31 04:22:00,
2013-03-30 22:32:00,31.0,18.0,-100.00,East,90,1.0,4.0,57,0.00,,,0.06,0.000000,,2013-03-31 04:32:00,
2013-03-30 22:42:00,31.0,18.0,-100.00,East,90,1.0,4.0,57,0.00,,,0.06,0.000000,,2013-03-31 04:42:00,
2013-03-30 22:52:00,28.0,20.0,-100.00,ENE,74,5.0,8.0,73,0.00,,,0.06,0.000000,,2013-03-31 04:52:00,
2013-03-30 23:12:00,28.0,20.0,-100.00,ENE,74,5.0,8.0,73,0.00,,,0.06,0.000000,,2013-03-31 05:12:00,
2013-03-30 23:22:00,28.0,20.0,-100.00,ENE,74,5.0,8.0,73,0.00,,,0.06,0.000000,,2013-03-31 05:22:00,
2013-03-30 23:32:00,28.0,20.0,-100.00,ENE,74,5.0,8.0,73,0.00,,,0.06,0.000000,,2013-03-31 05:32:00,
2013-03-30 23:42:00,28.0,20.0,-100.00,ENE,74,5.0,8.0,73,0.00,,,0.06,0.000000,,2013-03-31 05:42:00,
2013-03-30 23:52:00,27.0,19.0,-100.00,ENE,72,7.0,11.0,72,0.00,,,0.06,0.000000,,2013-03-31 05:52:00,